This is the latest recevied weather packets stored in our database for station/object HA6IFZ-10. If no packets are shown the sender has not sent any weather packets the latest 10 day(s).
| Time | Temp. | Humidity | Pressure | Rain* | Wind** | Luminosity | Snow |
|---|---|---|---|---|---|---|---|
| 1787952794 | 25° C | 28% | 1022.6 hPa | - | - | - | - |
| 1787951894 | 25° C | 27% | 1022.7 hPa | - | - | - | - |
| 1787950994 | 25° C | 27% | 1022.9 hPa | - | - | - | - |
| 1787950094 | 25° C | 27% | 1022.9 hPa | - | - | - | - |
| 1787949193 | 25° C | 27% | 1023.1 hPa | - | - | - | - |
| 1787948293 | 25° C | 27% | 1023.2 hPa | - | - | - | - |
| 1787947393 | 25.56° C | 26% | 1023 hPa | - | - | - | - |
| 1787946493 | 25° C | 27% | 1023.1 hPa | - | - | - | - |
| 1787945593 | 25.56° C | 26% | 1023.4 hPa | - | - | - | - |
| 1787944693 | 24.44° C | 27% | 1023.3 hPa | - | - | - | - |
| 1787943793 | 24.44° C | 28% | 1023.5 hPa | - | - | - | - |
| 1787942893 | 24.44° C | 27% | 1023.6 hPa | - | - | - | - |
| 1787941993 | 25° C | 27% | 1023.6 hPa | - | - | - | - |
| 1787941093 | 25° C | 27% | 1023.4 hPa | - | - | - | - |
| 1787940193 | 25.56° C | 26% | 1023.6 hPa | - | - | - | - |
| 1787939292 | 25° C | 27% | 1023.8 hPa | - | - | - | - |
| 1787938392 | 25° C | 28% | 1023.9 hPa | - | - | - | - |
| 1787937492 | 25.56° C | 27% | 1023.9 hPa | - | - | - | - |
| 1787935689 | 26.67° C | 25% | 1023.8 hPa | - | - | - | - |
| 1787934789 | 27.22° C | 25% | 1023.8 hPa | - | - | - | - |
| 1787933889 | 27.78° C | 25% | 1023.7 hPa | - | - | - | - |
| 1787932988 | 27.78° C | 24% | 1023.8 hPa | - | - | - | - |
| 1787932088 | 28.33° C | 24% | 1023.8 hPa | - | - | - | - |
| 1787931188 | 28.33° C | 23% | 1024 hPa | - | - | - | - |
| 1787930288 | 28.33° C | 24% | 1023.9 hPa | - | - | - | - |
* Rain since midnight (hover to see other rain measurements)
** Current wind speed in m/s (hover to see current wind gust speed)